Location: Newark
(51.3318°N, 0.0053°E)
Time: 15:19:20
(UTC+00:00)

DIWATA 2B (PO-101) - Pass Details

Date: 04 July 2022
Orbit: 583 x 599 km, 98.0° (Epoch: 07 August)

Event Time Altitude Azimuth Distance (km) Brightness Sun altitude
Exits shadow 00:28:06 - 121° (ESE) 2,568 ? -15.6°
Reaches altitude 10° 00:29:57 10° 108° (ESE) 1,943 ? -15.6°
Maximum altitude 00:33:05 21° 60° (ENE) 1,381 ? -15.5°
Drops below altitude 10° 00:36:13 10° 12° (NNE) 1,952 ? -15.4°
Sets 00:38:49 0° 357° (N) 2,858 ? -15.4°
